This demonstration page uses our WeatherBlox Daily Observations layout. Learn more.

Left ArrowRight Arrow

44.8408, -93.29828

Hourly Observations for December 14, 2017

Temp ( °F °C ) Dew Point ( °F °C ) Humidity (%) Winds ( mph kmh ) Pressure ( in mb ) Visibility ( mi km ) Precip ( " mm )
12:53 am 00:53 Cloudy 18 -7.8 15 -9.4 88 88 W 6 9 30.03 1017 9 14 0.00 0.00
1:53 am 01:53 Cloudy 20 -6.7 16 -8.9 85 85 WSW 3 6 30.03 1017 10 16 0.00 0.00
2:53 am 02:53 Cloudy 20 -6.7 16 -8.9 85 85 W 6 9 30.05 1018 10 16 0.00 0.00
3:53 am 03:53 Cloudy 19 -7.2 16 -8.9 88 88 NW 9 15 30.05 1018 10 16 0.00 0.00
4:53 am 04:53 Cloudy 19 -7.2 15 -9.4 84 84 NNW 6 9 30.05 1018 10 16 0.00 0.00
5:53 am 05:53 Mostly Cloudy 17 -8.3 14 -10 88 88 W 5 7 30.05 1018 10 16 0.00 0.00
6:53 am 06:53 Mostly Clear 17 -8.3 14 -10 88 88 W 3 6 30.07 1018 10 16 0.00 0.00
7:53 am 07:53 Mostly Cloudy 16 -8.9 12 -11.1 84 84 Calm 30.07 1018 10 16 0.00 0.00
8:53 am 08:53 Cloudy 18 -7.8 14 -10 84 84 WSW 5 7 30.09 1019 9 14 0.00 0.00
9:53 am 09:53 Cloudy 19 -7.2 15 -9.4 84 84 WSW 5 7 30.10 1019 8 13 0.00 0.00
10:53 am 10:53 Cloudy with Light Snow 20 -6.7 15 -9.4 81 81 SW 5 7 30.09 1019 8 13 0.00 0.03
11:53 am 11:53 Cloudy 21 -6.1 16 -8.9 81 81 WSW 6 9 30.09 1019 10 16 0.00 0.03
12:04 pm 12:04 Cloudy 21 -6.1 16 -8.9 81 81 W 6 9 30.09 1019 10 16 0.00 0.00
12:53 pm 12:53 Cloudy 21 -6.1 16 -8.9 81 81 W 8 13 30.08 1019 10 16 0.00 0.00
1:53 pm 13:53 Cloudy with Light Snow 22 -5.6 17 -8.3 82 82 WSW 7 11 30.06 1018 9 14 0.00 0.03
2:53 pm 14:53 Cloudy 22 -5.6 17 -8.3 82 82 W 7 11 30.06 1018 10 16 0.00 0.03
3:53 pm 15:53 Cloudy 23 -5 18 -7.8 81 81 W 10 17 30.05 1018 9 14 0.00 0.03
4:35 pm 16:35 Cloudy 22 -5.6 18 -7.8 85 85 WNW 14 22 30.09 1019 10 16 0.00 0.00
4:53 pm 16:53 Cloudy 22 -5.6 18 -7.8 85 85 WNW 10 17 30.07 1018 10 16 0.00 0.00
5:53 pm 17:53 Cloudy with Light Snow 22 -5.6 17 -8.3 82 82 NW 12 19 30.08 1019 9 14 0.00 0.03
6:53 pm 18:53 Cloudy 23 -5 17 -8.3 78 78 WNW 12 19 30.07 1018 10 16 0.00 0.03
7:53 pm 19:53 Cloudy 23 -5 17 -8.3 78 78 NW 10 17 30.06 1018 10 16 0.00 0.00
8:53 pm 20:53 Cloudy 23 -5 17 -8.3 78 78 WNW 12 19 30.05 1018 10 16 0.00 0.00
9:53 pm 21:53 Cloudy 23 -5 17 -8.3 78 78 NW 14 22 30.04 1017 10 16 0.00 0.00
10:48 pm 22:48 Cloudy 23 -5 16 -9 74 74 WNW 12 19 30.06 1018 10 16 0.00 0.00
10:53 pm 22:53 Cloudy 23 -5 16 -8.9 74 74 NW 16 26 30.03 1017 10 16 0.00 0.00
11:53 pm 23:53 Cloudy 23 -5 16 -8.9 74 74 WNW 10 17 30.02 1017 10 16 0.00 0.00

Powered by AerisWeather